Regional Weather Roundup
Issued by NWS

Home | Current Version | Previous Version | Text Only | Print | Product List | Glossary Off
Versions: 1 2 3 4 5 6 7 8 9 10 11 12 13 14 15 16 17 18 19 20 21 22 23 24 25 26 27 28 29 30 31 32 33 34 35 36 37 38 39 40 41 42 43 44 45 46 47 48 49 50

854
ASUS45 KTFX 251110
RWRMT
MONTANA REGIONAL WEATHER ROUNDUP
NATIONAL WEATHER SERVICE GREAT FALLS MT
500 AM MDT THU MAY 25 2017

NOTE: "FAIR" INDICATES FEW OR NO CLOUDS BELOW 12000 FEET WITH NO
SIGNIFICANT WEATHER AND/OR OBSTRUCTIONS TO VISIBILITY.

MTZ001>007-043-251200-
WEST OF THE DIVIDE

CITY           SKY/WX    TMP DP  RH WIND       PRES   REMARKS
KALISPELL      CLOUDY    43  41  93 CALM      29.74R
MISSOULA       MOCLDY    45  35  68 NW6       29.75R
BUTTE          CLOUDY    41  24  51 N7        29.72R
MULLAN PASS    CLOUDY    32  28  85 CALM      29.76R
ANACONDA         N/A     43  25  49 W7        29.73R
DEER LODGE       N/A     45  27  49 NW7       29.74R
EUREKA           N/A     41  37  87 CALM      29.76R
HAMILTON         N/A     43  32  65 CALM      29.74R
RONAN            N/A     44  37  76 CALM      29.81R
$$

MTZ008-052>055-251200-
SOUTHWEST MONTANA

CITY           SKY/WX    TMP DP  RH WIND       PRES   REMARKS
BOZEMAN        CLOUDY    42  32  67 CALM      29.69R
DILLON         CLOUDY    38  20  48 S8        29.71R
W YELLOWSTONE  CLOUDY    27  21  80 S3        29.70R
ENNIS          MOCLDY    32  21  64 SE7       29.75R WCI  26
THREE FORKS      N/A     46  30  54 W3        29.71S
$$

MTZ009-010-012-014-046-048-049-054-251200-
EAST SLOPES AND CENTRAL MONTANA

CITY           SKY/WX    TMP DP  RH WIND       PRES   REMARKS
CUT BANK       CLOUDY    45  32  60 NW25G32   29.58R
GREAT FALLS    LGT RAIN  41  38  89 SW12      29.60R
MALMSTROM AFB  LGT RAIN  40  39  96 SW18      29.60R
HELENA         CLOUDY    49  30  48 NW15      29.67R
CHOTEAU          N/A     45  39  81 NW25G32   29.62R
CONRAD           N/A     44  44 100 W22       29.64R
$$

MTZ011-013-016-021-045-047-050-051-251200-
NORTH CENTRAL MONTANA

CITY           SKY/WX    TMP DP  RH WIND       PRES   REMARKS
HAVRE          CLOUDY    48  45  89 NW18G25   29.40R
LEWISTOWN      CLOUDY    43  33  68 W22G30    29.53S
N BAR RANCH    CLOUDY    45  30  57 W26G39    29.49F
CHINOOK          N/A     50  45  81 W20G30    29.35R
FORT BENTON      N/A     46  41  81 CALM      29.52R
$$

MTZ017>020-022>027-061-062-251200-
NORTHEAST MONTANA

CITY           SKY/WX    TMP DP  RH WIND       PRES   REMARKS
GLASGOW        CLOUDY    51  38  60 W22G33    29.31S
JORDAN           N/A     50  36  58 W25G33    29.41S
SIDNEY         CLEAR     44  43  96 S9        29.38F
WOLF POINT     CLOUDY    54  36  50 SW16      29.33F
MALTA          CLOUDY    50  43  76 W18G32    29.30S
PLENTYWOOD       N/A     39  28  65 E7        29.30F
POPLAR           N/A     48  28  46 SW9       29.34S
$$

MTZ028>42-056>058-251200-
SOUTHCENTRAL AND SOUTHEAST MONTANA

CITY           SKY/WX    TMP DP  RH WIND       PRES   REMARKS
BAKER          PTCLDY    42  38  85 W12       29.46R
BILLINGS       CLOUDY    47  22  37 W16       29.55R
LIVINGSTON     CLOUDY    44  22  41 W18       29.64R
MILES CITY     CLEAR     44  22  41 SW10      29.46R
BIG TIMBER     PTCLDY    43  23  45 W33G40    29.61R
FORSYTH          N/A     48  23  37 SW6       29.48R
LAUREL           N/A     49  19  30 MISG      29.58R
ROUNDUP          N/A     46  24  42 SW10      29.47S
$$

REGIONAL REPORTS...DAKOTAS

CITY           SKY/WX    TMP DP  RH WIND       PRES   REMARKS
WILLISTON      CLEAR     48  46  93 S5        29.36F
MINOT          CLOUDY    51  49  92 SE7       29.38S
DICKINSON      FOG       40  40 100 W5        29.40R VSB<1/4
BEACH            N/A     43  43 100 SW10      29.46S
TIOGA            N/A     46  46 100 S12       29.37F
WATFORD CITY     N/A     45  45 100 S7        29.37F
BISMARCK       CLOUDY    51  46  83 S7        29.42R
GRAND FORKS    MOCLDY    50  43  77 SE13      29.56F
FARGO          CLOUDY    51  43  74 SE16      29.57F
BUFFALO SD       N/A     45  43  93 W9        29.40R
RAPID CITY     PTCLDY    50  41  71 N9        29.45S
$$

REGIONAL REPORTS...WYOMING/IDAHO/WASHINGTON

CITY           SKY/WX    TMP DP  RH WIND       PRES   REMARKS
GILLETTE       PTCLDY    39  31  72 CALM      29.55S
SHERIDAN       PTCLDY    44  27  51 W8        29.58R
BUFFALO WY     CLOUDY    48  19  31 NW16G28   29.59R
CODY           CLOUDY    38  24  57 SW6       29.61R
YELLOWSTONE LA   N/A     26  18  71 CALM      29.72R
IDAHO FALLS    CLEAR     36  26  67 N5        29.71R
SALMON         CLOUDY    39  28  65 CALM      29.75R
BOISE          CLEAR     45  31  58 W3        29.74R
SPOKANE        CLOUDY    47  38  71 CALM      29.76S
$$

REGIONAL REPORTS...ALBERTA

CITY           SKY/WX    TMP DP  RH WIND       PRES   REMARKS
EDMONTON       CLEAR     46  36  66 NW14G23   29.63R
CALGARY        MOCLDY    46  36  66 NW24G33   29.64R
LETHBRIDGE     CLOUDY    50  39  66 NW24G33   29.59R
MEDICINE HAT   CLOUDY    50  45  81 NW24G36   29.38R
WATERTON GATE    N/A     45  36  70 NW6         N/A
MILK RIVER       N/A     46  43  87 NW30G40     N/A
$$

REGIONAL REPORTS...SASKATCHEWAN

CITY           SKY/WX    TMP DP  RH WIND       PRES   REMARKS
SWIFT CURRENT  CLOUDY    43  41  93 NW14      29.18R
REGINA         PTCLDY    37  30  75 SE10      29.23F WCI  30
SASKATOON      LGT RAIN  46  45  93 N6        29.22R
CYPRESS HILLS    N/A     41  39  93 NW21G38     N/A
VAL MARIE        N/A     48  46  93 W16         N/A
ROCKGLEN         N/A     41  39  93 S22         N/A
ASSINIBOIA       N/A     50  39  66 N22G32      N/A
$$




USA.gov is the U.S. government's official web portal to all federal, state and local government web resources and services.